EHI
0 0 0 0 0 0 0 0 0 0 0 0 0 0 0 0 0 0 0 0 0 0 0 0 0 0 0 0 0 0 0 0 0 0 0 0 0 0
0 0 0 0 0 0 0 0 0 0 0 0 0 0 0 0 0 0 0 0 0 0 0 0 0 0 0 0 0 0 0 0 0 0 0 0 0 0
0 0 0 0 0 0 0 0 0 0 0 0 0 0 0 0 0 0 0 0 0 0 0 0 0 0 0 0 0 0 0 0 0 0 0 0 0 0
0 0 0 0 0 0 0 0 0 0 0 0 0 0 0 0 0 0 0 0 0 0 0 0 0 0 0 0 0 0 0 0 0 0 0 0 0 0
0 0 0 0 0 0 0 0 0 0 0 0 0 0 0 0 0 0 0 0 0 0 0 0 0 0 0 0 0 0 0 0 0 0 0 0 0 0
0 0 0 0 0 0 0 0 0 0 0 0 0 0 0 0 0 0 0 0 0 0 0 0 0 0 0 0 0 0 0 0 0 0 0 0 0 0
0 0 0 0 0 0 0 0 0 0 0 0 0 0 0 0 0 0 0 0 0 0 0 0 0 0 0 0 0 0 0 0 0 0 0 0 0 0
0 0 0 0 0 0 0 0 0 0 0 0 0 0 0 0 0 0 0 0 0 0 0 0 0 0 0 0 0 0 0 0 0 0 0 0 0 0
0 0 0 0 0 0 0 0 0 0 0 0 0 0 0 0 0 0 0 0 0 0 0 0 0 0 0 0 0 0 0 0 0 0 0 0 0 0
0 0 0 0 0 0 0 0 0 0 0 0 0 0 0 0 0 0 0 0 0 0 0 0 0 0 0 0 0 0 0 0 0 0 0 0 0 0
0 0 0 0 0 0 0 0 0 0 0 0 0 0 0 0 0 0 0 0 0 0 0 0 0 0 0 0 0 0 0 0 0 0 0 0 0 0
0 0 0 0 0 0 0 0 0 0 0 0 0 0 0 0 0 0 0 0 0 0 0 0 0 0 0 0 0 0 0 0 0 0 0 0 0 0
0 0 0 0 0 0 0 0 0 0 0 0 0 0 0 0 0 0 0 0 0 0 0 0 0 0 0 0 0 0 0 0 0 0 0 0 0 0
0 0 0 0 0 0 0 0 0 0 0 0 0 0 0 0 0 0 0 0 0 0 0 0 0 0 0 0 0 0 0 0 0 0 0 0 0 0
0 0 0 0 0 0 0 0 0 0 0 0 0 0 0 0 0 0 0 0 0 0 0 0 0 0 0 0 0 0 0 0 0 0 0 0 0 0
0 0 0 0 0 0 0 0 0 0 0 0 0 0 0 0 0 0 0 0 0 0 0 0 0 0 0 0 0 0 0 0 0 0 0 0 0 0
0 0 0 0 0 0 0 0 0 0 0 0 0 0 0 0 0 0 0 0 0 0 0 0 0 0 0 0 0 0 0 0 0 0 0 0 0 0
0 0 0 0 0 0 0 0 0 0 0 0 0 0 0 0 0 0 0 0 0 0 0 0 0 0 0 0 0 0 0 0 0 0 0 0 0 0
0 0 0 0 0 0 0 0 0 0 0 0 0 0 0 0 0 0 0 0 0 0 0 0 0 0 0 0 0 0 0 0 0 0 0 0 0 0
0 0 0 0 0 0 0 0 0 0 0 0 0 0 0 0 0 0 0 0 0 0 0 0 0 0 0 0 0 0 0 0 0 0 0 0 0 0
0 0 0 0 0 0 0 0 0 0 0 0 0 0 0 0 0 0 0 0 0 0 0 0 0 0 0 0 0 0 0 0 0 0 0 0 0 0
0 0 0 0 0 0 0 0 0 0 0 0 0 0 0 0 0 0 0 0 0 0 0 0 0 0 0 0 0 0 0 0 0 0 0 0 0 0
0 0 0 0 0 0 0 0 0 0 0 0 0 0 0 0 0 0 0 0 0 0 0 0 0 0 0 0 0 0 0 0 0 0 0 0 0 0
Wind_Speed
5 6 5 4 4 4 5 5 5 6 5 4 3 3 3 3 4 5 5 7 8 9 10 10 11 11 12 12 13 12 12 12 13 13 14 15 14 14
4 5 5 4 4 4 4 5 5 6 6 4 4 4 4 4 5 6 6 8 9 9 10 10 11 11 12 12 12 12 12 13 13 13 14 14 13 13
5 6 6 6 4 4 4 5 5 5 6 6 5 5 6 5 5 5 5 6 5 8 10 10 11 12 11 12 11 12 12 12 12 13 13 13 13 13
6 6 6 5 6 5 5 6 5 5 6 7 5 5 6 5 6 6 5 5 6 7 9 10 11 11 11 11 11 11 11 11 12 13 13 12 13 13
6 6 6 6 6 5 6 5 4 4 5 6 5 4 4 4 5 5 6 6 6 6 8 9 10 11 11 10 10 10 10 10 11 11 11 11 11 12
5 5 5 6 6 6 5 5 5 4 4 4 5 4 4 4 4 4 5 5 5 5 6 7 9 10 10 10 9 8 9 10 10 11 11 10 11 11
4 5 4 5 6 5 5 5 5 4 4 4 4 4 4 4 4 4 5 5 6 4 5 5 5 5 5 6 7 7 8 9 9 10 10 10 10 11
4 4 3 4 4 5 6 6 6 6 5 5 5 5 5 4 4 4 4 5 4 3 4 5 4 5 4 4 5 6 8 8 8 9 9 9 10 10
4 3 3 3 4 4 4 5 5 7 7 6 6 6 6 5 5 5 5 5 5 4 4 5 4 5 4 4 6 6 7 7 8 8 8 9 9 8
3 3 3 4 4 3 3 3 4 4 5 5 5 6 5 5 5 6 6 6 6 4 3 4 4 4 4 4 4 5 6 6 7 7 7 8 9 8
3 3 3 3 3 4 3 3 4 3 3 4 5 6 6 6 5 4 4 4 4 3 2 3 3 4 4 3 3 4 5 6 7 7 8 8 8 7
2 2 3 3 3 4 3 3 4 4 3 3 3 4 4 4 5 4 4 4 3 3 1 2 3 3 3 3 3 3 4 5 6 7 7 8 8 5
2 2 2 3 3 3 3 3 4 4 3 3 3 3 3 2 3 3 3 4 4 3 2 2 2 2 3 3 4 4 3 4 4 5 6 7 7 6
2 2 2 3 3 4 3 3 4 4 3 3 3 3 3 3 3 3 3 4 4 4 4 3 3 3 3 3 3 3 3 3 4 4 4 6 6 6
2 2 3 4 4 3 3 4 3 2 2 2 3 3 3 3 3 2 2 3 3 3 3 4 4 3 3 3 3 4 4 4 3 4 4 4 4 4
2 2 3 3 2 3 3 3 2 2 2 2 3 3 2 2 2 2 2 2 2 2 2 2 3 3 3 4 3 4 3 3 3 4 4 4 4 3
2 1 1 1 1 1 2 2 2 2 2 2 3 3 3 2 2 2 2 2 2 2 3 3 2 2 4 3 3 3 3 3 4 4 4 4 4 3
2 1 1 1 2 2 2 2 2 2 2 2 2 3 3 3 2 2 2 1 2 2 2 3 3 2 2 2 2 3 3 3 4 4 3 4 4 4
1 1 1 2 2 2 2 2 2 2 2 2 2 2 2 2 2 2 2 2 2 2 2 2 2 2 2 3 2 2 3 4 4 3 3 3 4 4
2 2 2 2 2 2 2 2 2 2 2 2 2 2 2 2 2 2 2 2 2 2 2 2 2 2 2 3 3 3 4 4 4 3 3 3 3 4
2 2 2 2 2 2 2 2 2 2 2 2 2 2 2 2 2 2 2 2 2 2 2 2 3 4 3 2 2 3 3 3 4 3 4 3 3 3
2 2 2 2 2 2 2 2 2 2 2 2 2 2 2 2 2 3 2 2 2 2 2 2 3 2 1 1 2 3 4 4 4 3 3 2 2 2
3 3 2 2 2 2 2 2 2 2 2 2 2 2 2 2 2 2 2 2 2 2 2 2 2 2 2 2 2 3 4 5 3 3 3 4 4 6
Wind_Direction
241 242 245 245 243 248 250 250 255 266 266 262 262 259 273 281 283 281 284 286 289 291 293 295 295 295 294 295 293 292 294 296 297 298 298 298 300 302
243 242 244 244 244 243 245 250 251 256 265 269 270 280 280 275 280 281 282 284 278 281 284 289 292 292 290 290 290 291 293 293 293 295 297 298 300 303
242 243 245 246 248 247 245 247 247 247 257 271 273 277 274 276 278 283 285 281 278 279 282 287 291 291 287 287 287 290 291 292 293 293 294 297 300 301
239 241 244 243 246 250 247 247 249 249 253 264 271 274 273 275 281 284 287 283 282 283 283 287 288 289 286 286 283 284 288 289 291 293 293 295 297 298
245 244 243 241 244 246 249 252 252 253 254 258 268 270 270 272 282 282 284 286 286 284 281 282 285 289 288 287 285 284 285 288 291 294 297 296 297 298
256 253 251 247 249 250 253 253 253 251 250 254 265 270 270 272 275 284 288 289 290 289 286 288 286 283 283 284 285 289 287 287 291 295 296 296 297 297
262 261 260 258 259 262 260 252 248 245 245 249 258 264 267 267 270 281 284 293 293 289 295 291 289 286 286 284 283 291 292 290 292 296 295 294 296 296
262 267 269 258 260 262 266 266 259 251 248 248 254 258 264 272 279 275 283 291 293 298 300 293 291 290 294 296 305 299 299 298 298 300 299 296 296 298
262 268 278 272 270 269 266 265 262 263 260 261 258 263 271 273 273 275 273 278 280 298 299 285 289 289 298 302 312 310 307 304 299 301 306 307 305 309
272 271 277 279 279 278 265 262 266 271 266 258 262 272 275 276 268 269 276 280 282 277 281 278 289 296 302 296 307 309 313 316 318 318 314 317 315 310
285 285 280 282 291 284 268 268 277 287 287 266 267 272 283 289 285 273 269 272 283 281 281 279 289 300 298 293 299 299 306 313 317 320 321 321 318 310
294 299 299 292 292 287 276 275 279 288 292 282 273 273 276 279 279 268 269 271 282 282 271 283 288 310 302 297 304 303 303 310 315 317 320 322 320 310
296 300 316 329 311 304 296 290 293 296 289 287 287 290 292 282 270 263 266 267 267 270 285 285 281 283 276 291 301 309 314 318 317 315 315 321 322 317
299 307 321 332 322 314 303 304 300 293 283 281 286 289 290 288 286 280 275 272 269 272 279 272 269 268 277 287 290 302 311 312 314 315 320 323 320 316
318 328 324 322 319 315 316 308 295 287 286 285 287 290 295 295 292 288 287 281 283 283 276 264 266 267 265 269 282 293 302 304 307 312 317 320 319 318
318 328 333 336 331 325 318 312 306 306 298 295 298 296 297 297 298 300 297 307 305 312 313 296 283 275 271 270 275 287 296 296 309 317 313 311 316 314
317 318 327 334 340 335 334 326 317 311 307 308 304 304 306 306 307 306 302 307 305 311 326 330 316 297 277 275 277 282 294 301 302 310 310 308 309 310
333 344 333 325 322 320 317 315 315 316 310 304 306 309 311 314 314 321 317 308 306 312 318 325 332 325 297 271 257 280 296 304 308 307 305 305 309 312
7 353 328 315 312 311 311 313 317 318 311 308 311 314 315 314 311 311 312 311 309 313 318 317 316 320 315 312 312 277 294 307 310 311 308 300 299 308
355 342 326 318 313 308 308 310 313 318 313 312 312 315 315 312 312 313 309 311 312 317 321 321 318 309 293 297 302 307 309 301 302 304 308 304 299 295
341 333 322 314 310 309 309 309 310 307 306 306 308 310 311 308 310 313 310 311 309 314 316 315 312 310 297 288 292 307 320 313 298 294 306 308 313 328
325 318 316 314 311 310 310 310 311 314 316 313 311 310 308 307 307 308 310 312 310 305 303 308 320 322 324 308 309 315 325 333 326 301 291 300 308 309
317 310 308 309 308 306 305 309 311 313 312 313 312 310 309 310 309 307 304 303 308 310 315 324 335 341 328 311 312 323 330 334 336 343 346 331 300 293